TimeEST,TemperatureF,Dew PointF,Humidity,Sea Level PressureIn,VisibilityMPH,Wind Direction,Wind SpeedMPH,Gust SpeedMPH,PrecipitationIn,Events,Conditions,WindDirDegrees,DateUTC
12:56 AM,53.1,50.0,89,29.94,10.0,Calm,Calm,-,N/A,,Overcast,0,2011-11-16 05:56:00
1:56 AM,53.1,50.0,89,29.94,10.0,Calm,Calm,-,N/A,,Overcast,0,2011-11-16 06:56:00
2:56 AM,53.6,51.8,94,29.93,10.0,Calm,Calm,-,N/A,,Mostly Cloudy,0,2011-11-16 07:56:00
3:56 AM,53.1,51.1,93,29.92,10.0,Calm,Calm,-,0.00,,Overcast,0,2011-11-16 08:56:00
4:56 AM,52.0,50.0,93,29.92,10.0,South,3.5,-,0.00,,Overcast,180,2011-11-16 09:56:00
5:56 AM,55.0,51.1,86,29.92,10.0,Calm,Calm,-,0.00,,Overcast,0,2011-11-16 10:56:00
6:56 AM,53.6,51.8,94,29.91,10.0,Calm,Calm,-,N/A,,Overcast,0,2011-11-16 11:56:00
7:56 AM,54.0,52.0,93,29.93,8.0,SE,3.5,-,N/A,,Overcast,140,2011-11-16 12:56:00
8:56 AM,55.9,52.0,87,29.92,10.0,Calm,Calm,-,N/A,,Overcast,0,2011-11-16 13:56:00
9:56 AM,57.0,52.0,83,29.89,10.0,Calm,Calm,-,N/A,,Mostly Cloudy,0,2011-11-16 14:56:00
10:56 AM,57.0,52.0,83,29.87,10.0,SSE,4.6,-,N/A,,Overcast,150,2011-11-16 15:56:00
11:56 AM,55.9,53.1,90,29.84,6.0,SE,4.6,-,0.00,Rain,Light Rain,140,2011-11-16 16:56:00
12:43 PM,55.4,53.6,94,29.79,5.0,ENE,3.5,-,0.00,,Drizzle,70,2011-11-16 17:43:00
12:56 PM,55.9,53.1,90,29.79,4.0,Calm,Calm,-,0.01,Rain,Light Rain,0,2011-11-16 17:56:00
1:23 PM,55.4,53.6,94,29.78,1.2,Calm,Calm,-,0.06,Rain,Rain,0,2011-11-16 18:23:00
1:56 PM,55.0,53.1,93,29.77,1.5,Calm,Calm,-,0.13,Rain,Rain,0,2011-11-16 18:56:00
2:56 PM,55.0,53.1,93,29.73,1.5,NE,5.8,-,0.15,Rain,Rain,40,2011-11-16 19:56:00
3:56 PM,55.0,54.0,96,29.73,1.2,Calm,Calm,-,0.21,Rain,Light Rain,0,2011-11-16 20:56:00
4:56 PM,55.0,53.1,93,29.72,1.2,North,4.6,-,0.12,Rain,Heavy Rain,360,2011-11-16 21:56:00
5:56 PM,55.0,53.1,93,29.71,1.2,North,6.9,-,0.09,Rain,Rain,350,2011-11-16 22:56:00
6:34 PM,55.4,53.6,94,29.73,2.0,NW,8.1,-,0.14,Rain,Rain,320,2011-11-16 23:34:00
6:54 PM,55.4,53.6,94,29.73,2.0,NNW,10.4,-,0.17,Rain,Light Rain,330,2011-11-16 23:54:00
6:56 PM,55.0,53.1,93,29.74,2.0,NNW,10.4,-,0.17,Rain,Light Rain,330,2011-11-16 23:56:00
7:38 PM,53.6,53.6,100,29.74,2.0,NW,10.4,-,0.02,Rain,Light Rain,320,2011-11-17 00:38:00
7:56 PM,54.0,53.1,97,29.75,4.0,NW,6.9,-,0.03,Rain,Light Rain,320,2011-11-17 00:56:00
8:56 PM,54.0,52.0,93,29.75,8.0,NW,5.8,-,0.03,,Overcast,320,2011-11-17 01:56:00
9:56 PM,53.6,51.8,94,29.73,10.0,NNW,8.1,-,N/A,Rain,Light Rain,330,2011-11-17 02:56:00
10:56 PM,53.1,51.1,93,29.73,10.0,NW,4.6,-,0.01,Rain,Light Rain,320,2011-11-17 03:56:00
11:56 PM,53.1,51.1,93,29.75,10.0,NW,4.6,-,0.01,Rain,Light Rain,310,2011-11-17 04:56:00